Regional Weather Roundup
Issued by NWS Upton, NY

Current Version | Previous Version | Graphics & Text | Print | Product List | Glossary Off
Versions: 1 2 3 4 5 6 7 8 9 10 11 12 13 14 15 16 17 18 19 20 21 22 23 24 25 26 27 28 29 30 31 32 33 34 35 36 37 38 39 40 41 42 43 44 45 46 47 48 49 50

000
ASUS41 KOKX 062004
RWROKX

REGIONAL WEATHER ROUNDUP
NATIONAL WEATHER SERVICE NEW YORK NY
300 PM EST SAT FEB 06 2016

NOTE: "FAIR" INDICATES FEW OR NO CLOUDS BELOW 12,000 FEET WITH NO
SIGNIFICANT WEATHER AND/OR OBSTRUCTIONS TO VISIBILITY.

NYZ071-072-176-178-NJZ106-104-062100-
NEW YORK CITY METRO AREA


CITY           SKY/WX    TMP DP  RH WIND       PRES   REMARKS
CENTRAL PARK   PTSUNNY   39  18  42 W9G18     30.32F WCI  33
LAGUARDIA APRT PTSUNNY   40  20  44 SW14      30.30F WCI  32
KENNEDY INTL   CLOUDY    38  20  48 SW10      30.33F WCI  31
NEWARK/LIBERTY PTSUNNY   40  20  44 S13       30.31F WCI  32
BRNX BOT. GARD   N/A     41  21  45 S2        30.32S
TETERBORO      MOSUNNY   40  19  43 S9        30.29F WCI  34
$$

NYZ177-179-078>081-062100-
LONG ISLAND NEW YORK

CITY           SKY/WX    TMP DP  RH WIND       PRES   REMARKS
FARMINGDALE    CLOUDY    37  23  56 SW12      30.33F WCI  29
ISLIP          PTSUNNY   36  23  59 SW14      30.31F WCI  27
SHIRLEY        MOSUNNY   37  23  56 SW10      30.34F WCI  30
RIVERHEAD        N/A     37  25  60 S5        30.34F WCI  34
WESTHAMPTON    MOSUNNY   36  24  62 SW9       30.35F WCI  29
EAST HAMPTON   FAIR      35  25  67 SW10      30.33F WCI  27
MONTAUK POINT    N/A     37  25  61 SW9G17    30.34F WCI  30
$$

NYZ052-065-067-062100-
HUDSON VALLEY

CITY           SKY/WX    TMP DP  RH WIND       PRES   REMARKS
WHITE PLAINS   MOSUNNY   38  19  46 S7        30.27F WCI  33
NEWBURGH       MOSUNNY   43  19  39 SW9       30.24F
MONTGOMERY     PTSUNNY   42  19  39 SW16      30.22F
POUGHKEEPSIE   MOSUNNY   42  17  36 VRB7      30.24F
ALBANY         CLOUDY    41  16  36 S15       30.18F
$$

NJZ001-105-106-008-010-013-015-019>022-104-062100-
NEW JERSEY

CITY           SKY/WX    TMP DP  RH WIND       PRES   REMARKS
NEWARK/LIBERTY PTSUNNY   40  20  44 S13       30.31F WCI  32
TETERBORO      MOSUNNY   40  19  43 S9        30.29F WCI  34
CALDWELL       MOSUNNY   40  15  36 SW5       30.30F
MORRISTOWN     PTSUNNY   39  19  45 SW12G26   30.30F WCI  32
SOMERVILLE     MOSUNNY   41  19  41 S7        30.28F
SUSSEX         MOSUNNY   41  18  39 SW13G20   30.25F
ANDOVER          N/A     39  16  39 SW9       30.26F WCI  33
TRENTON        MOSUNNY   40  21  46 S13       30.30F WCI  32
MILLVILLE      PTSUNNY   40  21  46 SW5       30.34F
ATLANTIC CITY  MOSUNNY   41  20  43 SW10      30.34F
WRIGHTSTOWN    PTSUNNY   39  23  52 SW10      30.29F WCI  33
TOMS RIVER     MOSUNNY   39  21  48 S9        30.33F WCI  33
BELMAR         MOSUNNY   39  18  41 S8        30.31F WCI  34
$$

PAZ047>061-062-071-062100-
EASTERN PENNSYLVANIA

CITY           SKY/WX    TMP DP  RH WIND       PRES   REMARKS
PHILADELPHIA   PTSUNNY   42  19  39 S10       30.33F
ALLENTOWN      MOSUNNY   41  20  43 SW10      30.28F
SCRANTON       MOSUNNY   41  17  38 SW13G22   30.19F
$$

CTZ002-004>006-009-010-012-RIZ004-006-007-MAZ004-011-015-062100-
SOUTHERN NEW ENGLAND
 IN CT

CITY           SKY/WX    TMP DP  RH WIND       PRES   REMARKS
BRADLEY INTL   PTSUNNY   36  21  54 S17       30.25F WCI  26
HARTFORD       SUNNY     37  23  56 S13       30.28F WCI  29
DANBURY        MOSUNNY   38  15  39 SW7       30.27F WCI  33
WTRBRY/OXFORD  MOSUNNY   36  16  44 SW10      30.27F WCI  28
BRIDGEPORT     PTSUNNY   39  24  55 SW13      30.31F WCI  31
MERIDEN        SUNNY     37  21  52 S9        30.29F WCI  30
NEW HAVEN      PTSUNNY   37  24  59 SW8       30.31F WCI  31
CHESTER        FAIR      34  25  69 SW7G16    30.30F WCI  28
GROTON         CLOUDY    35  24  64 SW10      30.32F WCI  27
WILLIMANTIC    SUNNY     36  24  62 S10       30.29F WCI  28

 IN RI

CITY           SKY/WX    TMP DP  RH WIND       PRES   REMARKS
PROVIDENCE     PTSUNNY   35  23  61 SW14      30.31F WCI  26
BLOCK ISLAND   CLOUDY    37  27  65 SW15      30.32F WCI  28
WESTERLY       MOSUNNY   36  22  56 SW8       30.33F WCI  30

 IN MA

CITY           SKY/WX    TMP DP  RH WIND       PRES   REMARKS
BOSTON         PTSUNNY   35  24  64 SW16      30.28F WCI  25
WORCESTER      SUNNY     33  20  58 S12       30.21F WCI  24
WESTFIELD      SUNNY     37  20  50 SE12G20   30.22F WCI  29
PROVINCETOWN   PTSUNNY   34  23  64 SW15      30.31F WCI  24
NANTUCKET      MOSUNNY   37  25  61 SW15      30.33F WCI  28
$$

ANZ330-335-338-340-345-350-353-355-062100-
COASTAL MARINE OBSERVATIONS


STATION/POSITION TIME  SKY/WX   TEMP    WIND        PRES    VSBY  WAVE
                                AIR SEA DIR/SP/G                  HT/PER
                 (UTC)          (F)     (DEG/KT/KT) (MB)    (MI)  (FT/S)
NY HARB ENTRANCE 1850            38 44  210/ 14/ 16 1027.1          2/10
4S FIRE IS       NOT AVBL
20S FIRE ISLAND  1850            37 44  230/ 10/ 14 1027.9          2/ 9
GREAT SOUTH BAY  NOT AVBL
23SW MTP         1950            37 46  240/ 14/ 17 1026.8          2/ 9
HUDSON CANYON    1850            41 51              1028.3          3/10
KINGS POINT      1900            38 40  230/ 12/ 15 1026.5
EXECUTION ROCKS  NOT AVBL
CENTRAL LI SOUND 1900            37     200/ 10/ 14   N/A           1/ 3
EASTERN LI SOUND 1900            37 42  230/ 14/ 16   N/A
ROBBINS REEF     1900            38     210/ 10/ 12 1026.2
$$


>>>>>>>>>>>>>>>>>>>>>>>>>>>> KEY <<<<<<<<<<<<<<<<<<<<<<<<<<<
>                                                          <
>     SKY/WX - SKY CONDITION/PRESENT WEATHER               <
>     TMP    - TEMPERATURE IN FAHRENHEIT                   <
>     DP     - DEWPOINT IN FAHRENHEIT                      <
>     RH     - RELATIVE HUMIDITY IN PERCENT                <
>     WIND   - DIRECTION AND SPEED IN MPH                  <
>     PRES   - MEAN SEA LEVEL PRESSURE IN INCHES OF HG     <
>     WCI    - WIND CHILL INDEX                            <
>     VSB    - VISIBILITY IN MILES                         <
>     HX     - HEAT INDEX                                  <
>     TC     - TEMPERATURE IN CELSIUS                      <
>     VRB    - VARIABLE WIND DIRECTION                     <
>                                                          <
>>>>>>>>>>>>>>>>>>>>>>>>>>>> KEY <<<<<<<<<<<<<<<<<<<<<<<<<<<





USA.gov is the U.S. government's official web portal to all federal, state and local government web resources and services.